KM8V-8 Weather Reports


time (UTC)temp
F
wind
direction
speed
knots
gust
knots
rain 1hr
in
rain 24hr
in
rain mn
in
humidity
%
barometer
mb
20260506135518 49 286 2.6 3.5 0.00 0.90 0.48 89 1010.4
20260506135018 48 269 2.6 3.5 0.00 0.90 0.48 89 1010.4
20260506134518 48 243 1.7 2.6 0.00 0.90 0.48 89 1010.4
20260506134018 48 278 2.6 4.3 0.00 0.90 0.48 89 1010.3
20260506133518 48 261 1.7 4.3 0.00 0.90 0.48 90 1010.3
20260506133018 47 261 1.7 3.5 0.00 0.90 0.48 91 1010.2
20260506132518 47 282 1.7 2.6 0.00 0.90 0.48 93 1010.1
20260506132018 47 275 2.6 3.5 0.00 0.90 0.48 95 1010.1
20260506131519 47 283 1.7 3.5 0.00 0.90 0.48 97 1010.1
20260506131019 46 276 1.7 3.5 0.00 0.90 0.48 98 1010.1
20260506130519 46 279 1.7 3.5 0.00 0.90 0.48 99 1010.0
20260506130019 46 283 1.7 3.5 0.00 0.90 0.48 99 1009.9
20260506125519 46 273 1.7 2.6 0.00 0.90 0.48 100 1009.7
20260506125019 46 282 1.7 2.6 0.00 0.90 0.48 100 1009.8
20260506124519 46 306 0.9 1.7 0.00 0.90 0.48 100 1009.9
20260506124019 46 282 0.9 1.7 0.00 0.90 0.48 100 1009.6
20260506123519 46 298 0.0 0.9 0.00 0.90 0.48 100 1009.7
20260506123019 46 315 0.0 1.7 0.00 0.90 0.48 100 1009.7
20260506122520 46 299 0.0 0.9 0.00 0.90 0.48 100 1009.6
20260506122019 46 262 0.0 1.7 0.00 0.90 0.48 100 1009.7
20260506121520 46 304 0.9 1.7 0.00 0.90 0.48 100 1009.7
20260506121020 46 297 0.9 3.5 0.00 0.90 0.48 100 1009.8
20260506120520 46 279 0.9 1.7 0.00 0.90 0.48 100 1009.8
20260506120023 46 265 0.9 1.7 0.00 0.90 0.48 100 1009.7
20260506115520 46 272 1.7 2.6 0.00 0.90 0.48 100 1009.6
20260506115020 46 270 0.9 2.6 0.00 0.90 0.48 100 1009.7
20260506114520 45 290 0.9 2.6 0.00 0.90 0.48 100 1009.5
20260506114020 45 282 0.9 1.7 0.00 0.90 0.48 100 1009.4
20260506113520 45 291 0.0 1.7 0.00 0.90 0.48 100 1009.3
20260506113020 45 282 0.0 0.9 0.00 0.90 0.48 100 1009.1
20260506112521 45 0.0 0.0 0.00 0.90 0.48 100 1008.9
20260506112021 45 0.0 0.0 0.00 0.90 0.48 100 1008.9
20260506111521 45 254 0.0 1.7 0.00 0.90 0.48 100 1008.9
20260506111021 45 267 0.0 0.9 0.00 0.90 0.48 100 1008.9
20260506110521 45 221 0.0 0.9 0.00 0.90 0.48 100 1008.7
20260506110021 45 0.0 0.0 0.00 0.90 0.48 100 1008.4
20260506105521 45 226 0.0 1.7 0.00 0.90 0.48 100 1008.5
20260506105021 45 239 0.9 1.7 0.00 0.90 0.48 100 1008.5
20260506104521 45 251 0.0 1.7 0.00 0.90 0.48 100 1008.4
20260506104022 45 0.0 0.0 0.00 0.90 0.48 100 1008.2
20260506103521 45 0.0 0.0 0.00 0.90 0.48 100 1008.6
20260506103022 45 242 0.9 2.6 0.00 0.90 0.48 100 1008.7
20260506102522 45 250 1.7 3.5 0.00 0.90 0.48 100 1008.7
20260506102022 45 234 1.7 3.5 0.00 0.90 0.48 100 1008.7
20260506101522 45 171 1.7 2.6 0.01 0.90 0.48 100 1008.6
20260506101022 45 165 1.7 3.5 0.01 0.90 0.48 100 1008.3
20260506100522 45 137 0.9 1.7 0.01 0.90 0.48 100 1008.0
20260506100022 45 130 0.9 1.7 0.01 0.90 0.48 100 1008.0
20260506095522 45 141 0.0 0.9 0.01 0.90 0.48 100 1007.9
20260506095023 45 0.0 0.0 0.01 0.90 0.48 100 1008.0
20260506094523 45 0.0 0.0 0.01 0.90 0.48 100 1008.1
20260506094022 45 98 0.9 1.7 0.01 0.90 0.48 100 1008.3
20260506093523 45 113 0.0 0.9 0.01 0.90 0.48 100 1008.5
20260506093023 45 0.0 0.0 0.01 0.90 0.48 100 1008.6
20260506092523 45 249 0.9 2.6 0.01 0.90 0.48 100 1008.8
20260506092023 45 250 0.9 1.7 0.01 0.90 0.47 100 1009.0
20260506091523 45 259 1.7 3.5 0.01 0.90 0.47 100 1009.0
20260506091023 45 263 2.6 3.5 0.01 0.89 0.47 100 1008.9
20260506090523 45 254 0.9 1.7 0.02 0.89 0.47 100 1008.6
20260506090023 45 259 1.7 2.6 0.03 0.89 0.47 100 1008.5
20260506085523 45 265 0.9 3.5 0.04 0.89 0.47 100 1008.5
20260506085019 45 255 0.9 4.3 0.04 0.89 0.47 100 1008.4
20260506084519 45 257 1.7 5.2 0.04 0.89 0.47 99 1008.3
20260506084024 45 345 0.9 1.7 0.04 0.89 0.47 99 1008.3
20260506083524 46 266 0.9 3.5 0.05 0.89 0.47 99 1008.3
20260506083024 46 298 0.9 2.6 0.05 0.89 0.47 100 1008.2
20260506082524 46 277 0.9 3.5 0.05 0.89 0.47 100 1008.2
20260506082024 46 286 0.9 3.5 0.06 0.89 0.47 100 1008.4
20260506081520 46 264 1.7 5.2 0.07 0.89 0.46 100 1008.5
20260506081020 46 256 1.7 6.1 0.07 0.88 0.46 100 1008.4
20260506080520 47 274 1.7 7.0 0.06 0.87 0.45 100 1008.6
20260506073525 46 265 0.9 2.6 0.05 0.84 0.42 100 1008.4
20260506073025 46 293 0.9 1.7 0.05 0.84 0.42 100 1008.3
20260506072525 46 281 0.0 1.7 0.05 0.84 0.42 100 1008.3
20260506072025 46 345 0.0 0.9 0.04 0.83 0.41 100 1008.3
20260506071525 46 299 0.0 1.7 0.02 0.82 0.39 100 1008.3
20260506071025 46 236 0.0 3.5 0.02 0.81 0.39 99 1008.3
20260506070525 46 256 0.0 0.9 0.02 0.81 0.39 99 1008.3
20260506062026 46 274 0.0 1.7 0.01 0.80 0.37 99 1008.5
20260506061526 46 288 0.9 1.7 0.01 0.79 0.37 99 1008.5
20260506061026 46 313 0.0 0.9 0.02 0.79 0.37 99 1008.5
20260506060526 46 280 0.9 2.6 0.02 0.79 0.37 99 1008.5
20260506051028 46 0.0 0.0 0.04 0.78 0.35 99 1008.5
20260506050528 46 0.0 0.0 0.04 0.78 0.35 99 1008.5
20260506045028 46 0.0 0.0 0.03 0.76 0.34 99 1008.9
20260506044528 46 0.0 0.0 0.03 0.76 0.33 99 1008.8
20260506044028 46 68 0.9 1.7 0.02 0.75 0.33 99 1008.9
20260506043528 47 56 0.0 0.9 0.02 0.76 0.32 99 1008.9
20260506043028 47 18 0.0 0.9 0.03 0.76 0.32 99 1009.0
20260506042528 47 0.0 0.0 0.03 0.76 0.32 99 1009.0
20260506042029 47 0.0 0.0 0.03 0.76 0.32 99 1009.0
20260506041528 47 336 0.0 0.0 0.04 0.75 0.32 99 1009.1
20260506041029 47 336 0.0 0.9 0.04 0.75 0.32 99 1009.2
20260506040529 47 345 0.0 0.9 0.05 0.75 0.32 99 1009.2
20260506040029 47 335 0.0 0.9 0.06 0.75 0.31 99 1009.2
20260506035516 48 58 0.0 0.9 0.07 0.75 0.31 99 1009.3
20260506035029 48 0.0 0.0 0.08 0.74 0.31 99 1009.4
20260506034529 48 291 0.0 1.7 0.09 0.74 0.30 99 1009.6
20260506034029 48 272 0.9 1.7 0.10 0.74 0.30 99 1009.5
20260506033529 48 254 0.9 1.7 0.11 0.74 0.30 99 1009.5
20260506033030 48 265 1.7 3.5 0.13 0.73 0.30 99 1009.5
20260506032529 48 287 0.9 1.7 0.14 0.73 0.29 99 1009.4
20260506032030 48 0.0 0.0 0.14 0.73 0.29 99 1009.3
20260506031530 49 1 0.0 1.7 0.15 0.72 0.28 99 1009.4
20260506031016 49 57 0.0 0.9 0.16 0.71 0.27 99 1009.3
20260506030530 49 287 0.9 2.6 0.16 0.70 0.27 99 1009.4
20260506030017 49 252 0.0 2.6 0.16 0.69 0.25 99 1009.4
20260506025517 49 284 0.9 3.5 0.16 0.68 0.24 99 1009.4
20260506025017 49 275 0.9 2.6 0.16 0.66 0.23 99 1009.4
20260506024519 49 0.0 0.0 0.15 0.65 0.22 99 1009.4
20260506024017 49 9 0.0 1.7 0.14 0.64 0.20 99 1009.3
20260506023517 49 14 0.0 1.7 0.14 0.62 0.19 99 1009.1
20260506023017 49 4 0.0 1.7 0.13 0.61 0.17 99 1009.0
20260506022517 49 97 0.0 0.9 0.12 0.59 0.16 99 1009.0
20260506022019 49 81 0.0 1.7 0.12 0.59 0.15 99 1008.9
20260506021518 49 62 0.9 3.5 0.10 0.57 0.13 99 1008.9
20260506021019 49 34 0.9 1.7 0.09 0.56 0.12 99 1008.9
20260506020518 49 9 0.9 2.6 0.08 0.54 0.11 99 1008.9
20260506020021 49 345 0.9 2.6 0.06 0.53 0.09 99 1008.9
20260506015519 49 345 0.9 2.6 0.05 0.52 0.08 99 1008.8
20260506015018 49 19 0.0 0.9 0.04 0.51 0.07 99 1008.7
20260506014518 49 18 0.0 1.7 0.04 0.51 0.07 99 1008.7
20260506014018 49 1 0.0 0.9 0.04 0.50 0.06 99 1008.8
20260506013518 49 0.0 0.0 0.02 0.48 0.05 99 1008.7
20260506013018 49 41 0.0 0.9 0.02 0.48 0.04 99 1008.7
20260506012519 49 11 0.9 2.6 0.01 0.47 0.03 99 1008.7
20260506012019 49 358 0.9 1.7 0.01 0.47 0.03 99 1008.7
20260506011519 49 75 0.0 0.9 0.02 0.47 0.03 99 1008.6
20260506011020 49 0.0 0.0 0.02 0.47 0.03 98 1008.6
20260506010519 49 30 0.0 1.7 0.03 0.47 0.03 98 1008.5
20260506010019 49 358 0.9 2.6 0.03 0.47 0.03 98 1008.5
20260506005519 49 28 0.0 1.7 0.03 0.46 0.03 98 1008.5
20260506005019 49 9 0.9 2.6 0.03 0.46 0.03 98 1008.5
20260506004519 49 56 0.9 1.7 0.03 0.46 0.03 98 1008.7
20260506004019 49 265 0.9 1.7 0.03 0.46 0.02 98 1008.7
20260506003519 49 72 0.9 3.5 0.02 0.46 0.02 98 1008.8
20260506003019 49 44 1.7 3.5 0.02 0.46 0.02 98 1008.5
20260506002520 49 44 0.9 1.7 0.02 0.46 0.02 98 1008.3
20260506002019 49 67 0.9 2.6 0.02 0.46 0.02 98 1008.2
20260506001520 49 57 0.9 1.7 0.02 0.45 0.01 98 1008.1
20260506001020 49 45 0.9 2.6 0.02 0.45 0.01 98 1008.1
20260506000521 49 63 1.7 3.5 0.02 0.44 0.00 98 1008.1
20260506000021 49 79 1.7 3.5 0.02 0.44 0.00 98 1008.1
20260505235520 49 82 0.9 4.3 0.03 0.44 0.44 98 1008.2
20260505235020 49 80 1.7 2.6 0.04 0.44 0.44 98 1008.1
20260505234520 49 72 1.7 2.6 0.06 0.44 0.44 98 1008.0
20260505234021 49 62 0.9 2.6 0.09 0.44 0.44 98 1008.1
20260505233519 49 37 0.9 5.2 0.12 0.44 0.44 98 1008.2
20260505233020 49 57 1.7 3.5 0.12 0.43 0.43 98 1008.2
20260505232522 49 75 1.7 2.6 0.13 0.43 0.43 98 1008.4
20260505232022 49 58 0.9 3.5 0.13 0.43 0.43 98 1008.6
20260505231522 49 60 0.9 2.6 0.14 0.43 0.43 98 1008.5
20260505231018 49 10 0.9 5.2 0.15 0.43 0.43 98 1008.5
20260505230521 49 78 0.9 1.7 0.16 0.42 0.42 98 1008.7
20260505230021 50 11 0.9 2.6 0.16 0.42 0.42 98 1008.6
20260505225521 50 13 1.7 2.6 0.16 0.41 0.41 98 1008.6
20260505225021 50 280 0.9 2.6 0.15 0.40 0.40 97 1008.8
20260505224522 50 245 0.9 2.6 0.16 0.38 0.38 97 1008.6
20260505224022 50 297 0.9 2.6 0.14 0.35 0.35 97 1008.3
20260505223521 50 72 0.0 1.7 0.12 0.32 0.32 97 1008.2
20260505223021 50 327 0.0 1.7 0.12 0.31 0.31 97 1008.4
20260505222522 50 256 0.9 2.6 0.12 0.31 0.31 97 1008.4
20260505222022 50 287 0.9 2.6 0.11 0.30 0.30 97 1008.5
20260505221522 50 279 0.9 3.5 0.10 0.29 0.29 97 1008.3
20260505221022 50 271 0.9 2.6 0.09 0.27 0.27 97 1008.2
20260505220522 50 324 0.9 3.5 0.09 0.26 0.26 97 1008.1
20260505220022 50 326 0.9 1.7 0.09 0.26 0.26 97 1008.1
20260505215522 50 15 0.0 1.7 0.09 0.25 0.25 97 1008.0
20260505215022 50 335 1.7 3.5 0.11 0.25 0.24 97 1008.1
20260505214522 51 354 1.7 3.5 0.09 0.22 0.22 97 1008.0
20260505214023 51 49 0.9 1.7 0.10 0.21 0.21 97 1007.8
20260505213522 51 50 1.7 2.6 0.10 0.20 0.20 97 1008.0
20260505213023 51 292 0.9 2.6 0.10 0.20 0.19 97 1007.9
20260505212522 51 345 0.9 2.6 0.10 0.19 0.19 96 1007.8
20260505212023 51 49 0.0 1.7 0.10 0.19 0.19 96 1007.9
20260505211523 51 263 0.9 2.6 0.10 0.19 0.19 96 1007.9
20260505211023 52 258 0.9 3.5 0.10 0.18 0.18 96 1007.8
20260505210523 52 309 0.9 2.6 0.10 0.18 0.17 96 1007.7
20260505210023 52 15 1.7 4.3 0.10 0.18 0.17 96 1007.7
20260505205521 54 309 2.6 7.8 0.09 0.16 0.16 95 1007.7
20260505205021 55 267 1.7 6.1 0.07 0.14 0.14 95 1007.6
20260505204521 57 335 2.6 7.0 0.06 0.13 0.12 96 1007.5
20260505204024 57 272 1.7 3.5 0.05 0.11 0.11 96 1007.5
20260505203521 57 263 1.7 4.3 0.05 0.10 0.10 96 1007.5
20260505203024 57 262 2.6 4.3 0.05 0.10 0.09 96 1007.5
20260505202524 57 277 1.7 3.5 0.05 0.09 0.09 96 1007.4
20260505202024 57 310 1.7 3.5 0.05 0.09 0.09 96 1007.4
20260505201524 57 258 2.6 4.3 0.05 0.09 0.08 95 1007.5
20260505201024 57 240 1.7 3.5 0.05 0.08 0.08 95 1007.4
20260505200524 57 249 2.6 4.3 0.05 0.08 0.08 95 1007.4
20260505200024 57 232 2.6 4.3 0.05 0.08 0.07 95 1007.4
20260505195525 57 256 2.6 4.3 0.05 0.07 0.07 94 1007.4
20260505195025 57 219 2.6 4.3 0.05 0.07 0.07 94 1007.5
20260505194522 57 248 2.6 4.3 0.05 0.07 0.06 93 1007.5
20260505194025 58 212 2.6 3.5 0.04 0.06 0.06 93 1007.5
20260505193522 58 230 2.6 4.3 0.03 0.05 0.05 92 1007.6
20260505193025 58 227 2.6 3.5 0.03 0.05 0.04 92 1007.5
20260505192516 58 255 2.6 5.2 0.02 0.04 0.04 91 1007.5
20260505192016 58 257 2.6 5.2 0.02 0.04 0.03 90 1007.5
20260505191516 59 240 2.6 6.1 0.02 0.04 0.03 89 1007.4
20260505191016 60 259 2.6 5.2 0.02 0.03 0.03 87 1007.4
20260505190516 61 246 2.6 6.1 0.01 0.03 0.03 84 1007.4
20260505190026 61 291 1.7 4.3 0.01 0.03 0.03 81 1007.3
20260505185516 62 254 2.6 5.2 0.00 0.02 0.02 79 1007.2
20260505185022 63 253 2.6 6.1 0.00 0.02 0.01 77 1007.1
20260505184523 63 230 4.3 7.0 0.00 0.02 0.01 75 1007.1
20260505184023 63 267 3.5 7.8 0.00 0.02 0.01 74 1007.0
20260505183523 63 264 3.5 6.1 0.00 0.02 0.01 73 1007.0
20260505183017 63 226 2.6 6.1 0.00 0.02 0.01 73 1007.0
20260505182517 64 243 4.3 7.0 0.00 0.02 0.01 72 1007.0
20260505182017 64 234 3.5 7.0 0.00 0.02 0.01 72 1007.0
20260505181517 64 263 4.3 7.8 0.00 0.02 0.01 72 1006.9
20260505181017 64 235 5.2 10.4 0.00 0.02 0.01 72 1006.8
20260505180518 64 230 5.2 7.8 0.00 0.02 0.01 71 1006.8
20260505180018 64 246 5.2 9.6 0.00 0.02 0.01 71 1006.8
20260505175517 64 221 5.2 12.2 0.00 0.02 0.01 71 1006.8
20260505175017 64 247 4.3 10.4 0.00 0.02 0.01 71 1006.7
20260505174516 64 233 5.2 8.7 0.00 0.02 0.01 71 1006.7
20260505174018 64 234 6.1 10.4 0.00 0.02 0.01 71 1006.7
20260505173518 64 226 5.2 7.0 0.00 0.02 0.01 70 1006.7
20260505173018 64 228 6.1 8.7 0.00 0.02 0.01 70 1006.7
20260505172518 64 257 4.3 7.8 0.00 0.02 0.01 70 1006.7
20260505172018 64 227 5.2 7.8 0.00 0.02 0.01 70 1006.6
20260505171518 64 243 4.3 7.8 0.00 0.02 0.01 71 1006.6
20260505171018 64 248 2.6 5.2 0.00 0.02 0.01 72 1006.6
20260505170518 64 266 3.5 6.1 0.00 0.02 0.01 72 1006.6
20260505170019 64 263 3.5 6.1 0.00 0.02 0.01 71 1006.6
20260505165518 65 266 2.6 5.2 0.00 0.02 0.01 71 1006.6
20260505165018 65 251 2.6 6.1 0.00 0.02 0.01 70 1006.6
20260505164519 65 254 2.6 7.0 0.00 0.02 0.01 68 1006.5
20260505164016 66 237 6.1 12.2 0.00 0.02 0.01 66 1006.5
20260505163516 66 249 5.2 9.6 0.00 0.02 0.01 66 1006.5
20260505163019 66 244 6.1 12.2 0.00 0.02 0.01 65 1006.4
20260505162519 66 227 6.1 11.3 0.00 0.02 0.01 65 1006.3
20260505162019 66 240 5.2 8.7 0.00 0.02 0.01 65 1006.4
20260505161519 66 215 6.1 11.3 0.00 0.02 0.01 65 1006.3
20260505161019 66 206 6.1 11.3 0.00 0.02 0.01 64 1006.2
20260505160519 67 231 4.3 11.3 0.00 0.02 0.01 64 1006.3
20260505153020 67 247 5.2 11.3 0.00 0.02 0.01 63 1005.5
20260505152520 66 231 5.2 11.3 0.00 0.02 0.01 63 1005.3
20260505152017 66 220 6.1 10.4 0.00 0.02 0.01 63 1005.1
20260505151518 66 238 6.1 11.3 0.00 0.02 0.01 63 1005.0
20260505151017 66 225 5.2 9.6 0.00 0.02 0.01 64 1005.0
20260505150517 66 214 7.0 12.2 0.00 0.02 0.01 63 1005.2
20260505140519 64 223 7.0 16.5 0.00 0.02 0.01 69 1005.0